Year,Month,Day,Hour,Minute,Value (Times are PST for windgust in km/hr)
2010,01,17,00,00,19.30
2010,01,17,00,01,19.30
2010,01,17,00,02,20.90
2010,01,17,00,03,24.20
2010,01,17,00,04,19.30
2010,01,17,00,05,22.50
2010,01,17,00,06,20.90
2010,01,17,00,07,17.70
2010,01,17,00,08,24.20
2010,01,17,00,09,25.70
2010,01,17,00,10,25.70
2010,01,17,00,11,24.20
2010,01,17,00,12,22.50
2010,01,17,00,13,24.20
2010,01,17,00,14,25.70
2010,01,17,00,15,22.50
2010,01,17,00,16,22.50
2010,01,17,00,17,19.30
2010,01,17,00,18,17.70
2010,01,17,00,19,19.30
2010,01,17,00,20,20.90
2010,01,17,00,21,24.20
2010,01,17,00,22,29.00
2010,01,17,00,23,30.60
2010,01,17,00,24,27.40
2010,01,17,00,25,27.40
2010,01,17,00,26,29.00
2010,01,17,00,27,22.50
2010,01,17,00,28,25.70
2010,01,17,00,29,25.70
2010,01,17,00,30,30.60
2010,01,17,00,31,22.50
2010,01,17,00,32,27.40
2010,01,17,00,33,33.80
2010,01,17,00,34,25.70
2010,01,17,00,35,22.50
2010,01,17,00,36,32.20
2010,01,17,00,37,24.20
2010,01,17,00,38,22.50
2010,01,17,00,39,29.00
2010,01,17,00,40,33.80
2010,01,17,00,41,32.20
2010,01,17,00,42,27.40
2010,01,17,00,43,29.00
2010,01,17,00,44,32.20
2010,01,17,00,45,29.00
2010,01,17,00,46,24.20
2010,01,17,00,47,33.80
2010,01,17,00,48,29.00
2010,01,17,00,49,37.00
2010,01,17,00,50,33.80
2010,01,17,00,51,38.60
2010,01,17,00,52,37.00
2010,01,17,00,53,32.20
2010,01,17,00,54,25.70
2010,01,17,00,55,33.80
2010,01,17,00,56,38.60
2010,01,17,00,57,38.60
2010,01,17,00,58,30.60
2010,01,17,00,59,35.40
2010,01,17,01,00,38.60
2010,01,17,01,01,32.20
2010,01,17,01,02,38.60
2010,01,17,01,03,38.60
2010,01,17,01,04,38.60
2010,01,17,01,05,40.20
2010,01,17,01,06,37.00
2010,01,17,01,07,33.80
2010,01,17,01,08,35.40
2010,01,17,01,09,32.20
2010,01,17,01,10,30.60
2010,01,17,01,11,40.20
2010,01,17,01,12,29.00
2010,01,17,01,13,33.80
2010,01,17,01,14,35.40
2010,01,17,01,15,32.20
2010,01,17,01,16,33.80
2010,01,17,01,17,32.20
2010,01,17,01,18,37.00
2010,01,17,01,19,37.00
2010,01,17,01,20,41.80
2010,01,17,01,21,32.20
2010,01,17,01,22,35.40
2010,01,17,01,23,27.40
2010,01,17,01,24,33.80
2010,01,17,01,25,29.00
2010,01,17,01,26,32.20
2010,01,17,01,27,35.40
2010,01,17,01,28,32.20
2010,01,17,01,29,32.20
2010,01,17,01,30,29.00
2010,01,17,01,31,32.20
2010,01,17,01,32,30.60
2010,01,17,01,33,32.20
2010,01,17,01,34,37.00
2010,01,17,01,35,35.40
2010,01,17,01,36,35.40
2010,01,17,01,37,37.00
2010,01,17,01,38,30.60
2010,01,17,01,39,35.40
2010,01,17,01,40,24.20
2010,01,17,01,41,20.90
2010,01,17,01,42,27.40
2010,01,17,01,43,24.20
2010,01,17,01,44,25.70
2010,01,17,01,45,24.20
2010,01,17,01,46,25.70
2010,01,17,01,47,29.00
2010,01,17,01,48,24.20
2010,01,17,01,49,25.70
2010,01,17,01,50,25.70
2010,01,17,01,51,27.40
2010,01,17,01,52,25.70
2010,01,17,01,53,30.60
2010,01,17,01,54,35.40
2010,01,17,01,55,32.20
2010,01,17,01,56,29.00
2010,01,17,01,57,33.80
2010,01,17,01,58,27.40
2010,01,17,01,59,25.70
2010,01,17,02,00,33.80
2010,01,17,02,01,25.70
2010,01,17,02,02,24.20
2010,01,17,02,03,33.80
2010,01,17,02,04,35.40
2010,01,17,02,05,37.00
2010,01,17,02,06,27.40
2010,01,17,02,07,27.40
2010,01,17,02,08,30.60
2010,01,17,02,09,29.00
2010,01,17,02,10,35.40
2010,01,17,02,11,29.00
2010,01,17,02,12,25.70
2010,01,17,02,13,25.70
2010,01,17,02,14,27.40
2010,01,17,02,15,24.20
2010,01,17,02,16,29.00
2010,01,17,02,17,29.00
2010,01,17,02,18,25.70
2010,01,17,02,19,24.20
2010,01,17,02,20,30.60
2010,01,17,02,21,30.60
2010,01,17,02,22,25.70
2010,01,17,02,23,22.50
2010,01,17,02,24,25.70
2010,01,17,02,25,19.30
2010,01,17,02,26,24.20
2010,01,17,02,27,24.20
2010,01,17,02,28,27.40
2010,01,17,02,29,22.50
2010,01,17,02,30,29.00
2010,01,17,02,31,29.00
2010,01,17,02,32,25.70
2010,01,17,02,33,24.20
2010,01,17,02,34,24.20
2010,01,17,02,35,22.50
2010,01,17,02,36,20.90
2010,01,17,02,37,20.90
2010,01,17,02,38,20.90
2010,01,17,02,39,22.50
2010,01,17,02,40,27.40
2010,01,17,02,41,20.90
2010,01,17,02,42,24.20
2010,01,17,02,43,29.00
2010,01,17,02,44,29.00
2010,01,17,02,45,24.20
2010,01,17,02,46,29.00
2010,01,17,02,47,30.60
2010,01,17,02,48,22.50
2010,01,17,02,49,19.30
2010,01,17,02,50,19.30
2010,01,17,02,51,24.20
2010,01,17,02,52,20.90
2010,01,17,02,53,19.30
2010,01,17,02,54,20.90
2010,01,17,02,55,20.90
2010,01,17,02,56,22.50
2010,01,17,02,57,24.20
2010,01,17,02,58,24.20
2010,01,17,02,59,24.20
2010,01,17,03,00,27.40
2010,01,17,03,01,25.70
2010,01,17,03,02,22.50
2010,01,17,03,03,29.00
2010,01,17,03,04,29.00
2010,01,17,03,05,25.70
2010,01,17,03,06,25.70
2010,01,17,03,07,27.40
2010,01,17,03,08,24.20
2010,01,17,03,09,24.20
2010,01,17,03,10,25.70
2010,01,17,03,11,25.70
2010,01,17,03,12,25.70
2010,01,17,03,13,25.70
2010,01,17,03,14,25.70
2010,01,17,03,15,25.70
2010,01,17,03,16,25.70
2010,01,17,03,17,22.50
2010,01,17,03,18,25.70
2010,01,17,03,19,29.00
2010,01,17,03,20,27.40
2010,01,17,03,21,22.50
2010,01,17,03,22,27.40
2010,01,17,03,23,25.70
2010,01,17,03,24,27.40
2010,01,17,03,25,27.40
2010,01,17,03,26,30.60
2010,01,17,03,27,30.60
2010,01,17,03,28,30.60
2010,01,17,03,29,25.70
2010,01,17,03,30,27.40
2010,01,17,03,31,29.00
2010,01,17,03,32,29.00
2010,01,17,03,33,30.60
2010,01,17,03,34,24.20
2010,01,17,03,35,24.20
2010,01,17,03,36,24.20
2010,01,17,03,37,24.20
2010,01,17,03,38,22.50
2010,01,17,03,39,22.50
2010,01,17,03,40,25.70
2010,01,17,03,41,24.20
2010,01,17,03,42,25.70
2010,01,17,03,43,20.90
2010,01,17,03,44,25.70
2010,01,17,03,45,29.00
2010,01,17,03,46,24.20
2010,01,17,03,47,25.70
2010,01,17,03,48,29.00
2010,01,17,03,49,25.70
2010,01,17,03,50,22.50
2010,01,17,03,51,33.80
2010,01,17,03,52,29.00
2010,01,17,03,53,24.20
2010,01,17,03,54,32.20
2010,01,17,03,55,27.40
2010,01,17,03,56,24.20
2010,01,17,03,57,22.50
2010,01,17,03,58,24.20
2010,01,17,03,59,27.40
2010,01,17,04,00,27.40
2010,01,17,04,01,24.20
2010,01,17,04,02,27.40
2010,01,17,04,03,19.30
2010,01,17,04,04,24.20
2010,01,17,04,05,27.40
2010,01,17,04,06,22.50
2010,01,17,04,07,25.70
2010,01,17,04,08,20.90
2010,01,17,04,09,29.00
2010,01,17,04,10,27.40
2010,01,17,04,11,24.20
2010,01,17,04,12,19.30
2010,01,17,04,13,19.30
2010,01,17,04,14,25.70
2010,01,17,04,15,24.20
2010,01,17,04,16,27.40
2010,01,17,04,17,24.20
2010,01,17,04,18,20.90
2010,01,17,04,19,24.20
2010,01,17,04,20,24.20
2010,01,17,04,21,24.20
2010,01,17,04,22,25.70
2010,01,17,04,23,22.50
2010,01,17,04,24,29.00
2010,01,17,04,25,19.30
2010,01,17,04,26,30.60
2010,01,17,04,27,27.40
2010,01,17,04,28,25.70
2010,01,17,04,29,29.00
2010,01,17,04,30,27.40
2010,01,17,04,31,33.80
2010,01,17,04,32,32.20
2010,01,17,04,33,30.60
2010,01,17,04,34,30.60
2010,01,17,04,35,35.40
2010,01,17,04,36,27.40
2010,01,17,04,37,33.80
2010,01,17,04,38,29.00
2010,01,17,04,39,19.30
2010,01,17,04,40,25.70
2010,01,17,04,41,37.00
2010,01,17,04,42,32.20
2010,01,17,04,43,33.80
2010,01,17,04,44,29.00
2010,01,17,04,45,22.50
2010,01,17,04,46,25.70
2010,01,17,04,47,20.90
2010,01,17,04,48,29.00
2010,01,17,04,49,32.20
2010,01,17,04,50,22.50
2010,01,17,04,51,20.90
2010,01,17,04,52,25.70
2010,01,17,04,53,25.70
2010,01,17,04,54,22.50
2010,01,17,04,55,22.50
2010,01,17,04,56,25.70
2010,01,17,04,57,22.50
2010,01,17,04,58,27.40
2010,01,17,04,59,32.20
2010,01,17,05,00,32.20
2010,01,17,05,01,29.00
2010,01,17,05,02,27.40
2010,01,17,05,03,27.40
2010,01,17,05,04,30.60
2010,01,17,05,05,27.40
2010,01,17,05,06,33.80
2010,01,17,05,07,24.20
2010,01,17,05,08,24.20
2010,01,17,05,09,27.40
2010,01,17,05,10,25.70
2010,01,17,05,11,19.30
2010,01,17,05,12,27.40
2010,01,17,05,13,19.30
2010,01,17,05,14,20.90
2010,01,17,05,15,29.00
2010,01,17,05,16,25.70
2010,01,17,05,17,25.70
2010,01,17,05,18,29.00
2010,01,17,05,19,25.70
2010,01,17,05,20,25.70
2010,01,17,05,21,25.70
2010,01,17,05,22,25.70
2010,01,17,05,23,29.00
2010,01,17,05,24,29.00
2010,01,17,05,25,24.20
2010,01,17,05,26,29.00
2010,01,17,05,27,27.40
2010,01,17,05,28,32.20
2010,01,17,05,29,25.70
2010,01,17,05,30,24.20
2010,01,17,05,31,24.20
2010,01,17,05,32,24.20
2010,01,17,05,33,24.20
2010,01,17,05,34,27.40
2010,01,17,05,35,27.40
2010,01,17,05,36,33.80
2010,01,17,05,37,19.30
2010,01,17,05,38,24.20
2010,01,17,05,39,27.40
2010,01,17,05,40,25.70
2010,01,17,05,41,25.70
2010,01,17,05,42,19.30
2010,01,17,05,43,30.60
2010,01,17,05,44,33.80
2010,01,17,05,45,25.70
2010,01,17,05,46,30.60
2010,01,17,05,47,32.20
2010,01,17,05,48,25.70
2010,01,17,05,49,30.60
2010,01,17,05,50,29.00
2010,01,17,05,51,22.50
2010,01,17,05,52,27.40
2010,01,17,05,53,27.40
2010,01,17,05,54,17.70
2010,01,17,05,55,16.10
2010,01,17,05,56,22.50
2010,01,17,05,57,17.70
2010,01,17,05,58,16.10
2010,01,17,05,59,27.40
2010,01,17,06,00,25.70
2010,01,17,06,01,25.70
2010,01,17,06,02,24.20
2010,01,17,06,03,24.20
2010,01,17,06,04,22.50
2010,01,17,06,05,24.20
2010,01,17,06,06,24.20
2010,01,17,06,07,22.50
2010,01,17,06,08,24.20
2010,01,17,06,09,24.20
2010,01,17,06,10,22.50
2010,01,17,06,11,24.20
2010,01,17,06,12,29.00
2010,01,17,06,13,27.40
2010,01,17,06,14,24.20
2010,01,17,06,15,20.90
2010,01,17,06,16,20.90
2010,01,17,06,17,25.70
2010,01,17,06,18,25.70
2010,01,17,06,19,30.60
2010,01,17,06,20,29.00
2010,01,17,06,21,22.50
2010,01,17,06,22,19.30
2010,01,17,06,23,30.60
2010,01,17,06,24,29.00
2010,01,17,06,25,25.70
2010,01,17,06,26,24.20
2010,01,17,06,27,24.20
2010,01,17,06,28,27.40
2010,01,17,06,29,22.50
2010,01,17,06,30,25.70
2010,01,17,06,31,22.50
2010,01,17,06,32,24.20
2010,01,17,06,33,16.10
2010,01,17,06,34,25.70
2010,01,17,06,35,25.70
2010,01,17,06,36,17.70
2010,01,17,06,37,25.70
2010,01,17,06,38,24.20
2010,01,17,06,39,20.90
2010,01,17,06,40,20.90
2010,01,17,06,41,19.30
2010,01,17,06,42,24.20
2010,01,17,06,43,24.20
2010,01,17,06,44,22.50
2010,01,17,06,45,19.30
2010,01,17,06,46,22.50
2010,01,17,06,47,24.20
2010,01,17,06,48,22.50
2010,01,17,06,49,20.90
2010,01,17,06,50,24.20
2010,01,17,06,51,27.40
2010,01,17,06,52,24.20
2010,01,17,06,53,24.20
2010,01,17,06,54,27.40
2010,01,17,06,55,33.80
2010,01,17,06,56,24.20
2010,01,17,06,57,29.00
2010,01,17,06,58,25.70
2010,01,17,06,59,29.00
2010,01,17,07,00,25.70
2010,01,17,07,01,25.70
2010,01,17,07,02,25.70
2010,01,17,07,03,29.00
2010,01,17,07,04,25.70
2010,01,17,07,05,24.20
2010,01,17,07,06,25.70
2010,01,17,07,07,22.50
2010,01,17,07,08,27.40
2010,01,17,07,09,30.60
2010,01,17,07,10,29.00
2010,01,17,07,11,29.00
2010,01,17,07,12,29.00
2010,01,17,07,13,25.70
2010,01,17,07,14,32.20
2010,01,17,07,15,27.40
2010,01,17,07,16,25.70
2010,01,17,07,17,27.40
2010,01,17,07,18,19.30
2010,01,17,07,19,27.40
2010,01,17,07,20,29.00
2010,01,17,07,21,27.40
2010,01,17,07,22,29.00
2010,01,17,07,23,22.50
2010,01,17,07,24,20.90
2010,01,17,07,25,22.50
2010,01,17,07,26,25.70
2010,01,17,07,27,24.20
2010,01,17,07,28,24.20
2010,01,17,07,29,30.60
2010,01,17,07,30,29.00
2010,01,17,07,31,20.90
2010,01,17,07,32,25.70
2010,01,17,07,33,24.20
2010,01,17,07,34,25.70
2010,01,17,07,35,27.40
2010,01,17,07,36,30.60
2010,01,17,07,37,29.00
2010,01,17,07,38,29.00
2010,01,17,07,39,27.40
2010,01,17,07,40,27.40
2010,01,17,07,41,33.80
2010,01,17,07,42,32.20
2010,01,17,07,43,29.00
2010,01,17,07,44,30.60
2010,01,17,07,45,29.00
2010,01,17,07,46,33.80
2010,01,17,07,47,35.40
2010,01,17,07,48,37.00
2010,01,17,07,49,35.40
2010,01,17,07,50,32.20
2010,01,17,07,51,30.60
2010,01,17,07,52,37.00
2010,01,17,07,53,32.20
2010,01,17,07,54,30.60
2010,01,17,07,55,27.40
2010,01,17,07,56,30.60
2010,01,17,07,57,29.00
2010,01,17,07,58,19.30
2010,01,17,07,59,27.40
2010,01,17,08,00,27.40
2010,01,17,08,01,33.80
2010,01,17,08,02,38.60
2010,01,17,08,03,32.20
2010,01,17,08,04,33.80
2010,01,17,08,05,27.40
2010,01,17,08,06,27.40
2010,01,17,08,07,25.70
2010,01,17,08,08,29.00
2010,01,17,08,09,32.20
2010,01,17,08,10,32.20
2010,01,17,08,11,27.40
2010,01,17,08,12,30.60
2010,01,17,08,13,33.80
2010,01,17,08,14,29.00
2010,01,17,08,15,27.40
2010,01,17,08,16,35.40
2010,01,17,08,17,33.80
2010,01,17,08,18,29.00
2010,01,17,08,19,32.20
2010,01,17,08,20,32.20
2010,01,17,08,21,32.20
2010,01,17,08,22,32.20
2010,01,17,08,23,33.80
2010,01,17,08,24,33.80
2010,01,17,08,25,35.40
2010,01,17,08,26,29.00
2010,01,17,08,27,32.20
2010,01,17,08,28,37.00
2010,01,17,08,29,38.60
2010,01,17,08,30,30.60
2010,01,17,08,31,25.70
2010,01,17,08,32,29.00
2010,01,17,08,33,32.20
2010,01,17,08,34,32.20
2010,01,17,08,35,29.00
2010,01,17,08,36,29.00
2010,01,17,08,37,25.70
2010,01,17,08,38,29.00
2010,01,17,08,39,29.00
2010,01,17,08,40,22.50
2010,01,17,08,41,29.00
2010,01,17,08,42,25.70
2010,01,17,08,43,19.30
2010,01,17,08,44,20.90
2010,01,17,08,45,19.30
2010,01,17,08,46,33.80
2010,01,17,08,47,27.40
2010,01,17,08,48,22.50
2010,01,17,08,49,29.00
2010,01,17,08,50,27.40
2010,01,17,08,51,24.20
2010,01,17,08,52,27.40
2010,01,17,08,53,20.90
2010,01,17,08,54,20.90
2010,01,17,08,55,16.10
2010,01,17,08,56,11.30
2010,01,17,08,57,16.10
2010,01,17,08,58,14.50
2010,01,17,08,59,8.10
2010,01,17,09,00,9.60
2010,01,17,09,01,17.70
2010,01,17,09,02,11.30
2010,01,17,09,03,14.50
2010,01,17,09,04,16.10
2010,01,17,09,05,8.10
2010,01,17,09,06,11.30
2010,01,17,09,07,8.10
2010,01,17,09,08,14.50
2010,01,17,09,09,16.10
2010,01,17,09,10,17.70
2010,01,17,09,11,17.70
2010,01,17,09,12,14.50
2010,01,17,09,13,19.30
2010,01,17,09,14,19.30
2010,01,17,09,15,16.10
2010,01,17,09,16,16.10
2010,01,17,09,17,11.30
2010,01,17,09,18,22.50
2010,01,17,09,19,17.70
2010,01,17,09,20,9.60
2010,01,17,09,21,11.30
2010,01,17,09,22,11.30
2010,01,17,09,23,8.10
2010,01,17,09,24,9.60
2010,01,17,09,25,8.10
2010,01,17,09,26,11.30
2010,01,17,09,27,9.60
2010,01,17,09,28,11.30
2010,01,17,09,29,9.60
2010,01,17,09,30,14.50
2010,01,17,09,31,8.10
2010,01,17,09,32,6.40
2010,01,17,09,33,6.40
2010,01,17,09,34,4.80
2010,01,17,09,35,8.10
2010,01,17,09,36,9.60
2010,01,17,09,37,8.10
2010,01,17,09,38,11.30
2010,01,17,09,39,11.30
2010,01,17,09,40,11.30
2010,01,17,09,41,11.30
2010,01,17,09,42,9.60
2010,01,17,09,43,6.40
2010,01,17,09,44,8.10
2010,01,17,09,45,12.90
2010,01,17,09,46,8.10
2010,01,17,09,47,9.60
2010,01,17,09,48,8.10
2010,01,17,09,49,11.30
2010,01,17,09,50,12.90
2010,01,17,09,51,9.60
2010,01,17,09,52,14.50
2010,01,17,09,53,14.50
2010,01,17,09,54,11.30
2010,01,17,09,55,14.50
2010,01,17,09,56,16.10
2010,01,17,09,57,14.50
2010,01,17,09,58,16.10
2010,01,17,09,59,11.30
2010,01,17,10,00,14.50
2010,01,17,10,01,17.70
2010,01,17,10,02,16.10
2010,01,17,10,03,17.70
2010,01,17,10,04,22.50
2010,01,17,10,05,19.30
2010,01,17,10,06,17.70
2010,01,17,10,07,17.70
2010,01,17,10,08,11.30
2010,01,17,10,09,11.30
2010,01,17,10,10,17.70
2010,01,17,10,11,20.90
2010,01,17,10,12,16.10
2010,01,17,10,13,8.10
2010,01,17,10,14,11.30
2010,01,17,10,15,6.40
2010,01,17,10,16,9.60
2010,01,17,10,17,8.10
2010,01,17,10,18,12.90
2010,01,17,10,19,11.30
2010,01,17,10,20,11.30
2010,01,17,10,21,16.10
2010,01,17,10,22,14.50
2010,01,17,10,23,14.50
2010,01,17,10,24,11.30
2010,01,17,10,25,16.10
2010,01,17,10,26,16.10
2010,01,17,10,27,16.10
2010,01,17,10,28,19.30
2010,01,17,10,29,19.30
2010,01,17,10,30,17.70
2010,01,17,10,31,16.10
2010,01,17,10,32,20.90
2010,01,17,10,33,16.10
2010,01,17,10,34,22.50
2010,01,17,10,35,17.70
2010,01,17,10,36,16.10
2010,01,17,10,37,20.90
2010,01,17,10,38,16.10
2010,01,17,10,39,19.30
2010,01,17,10,40,20.90
2010,01,17,10,41,19.30
2010,01,17,10,42,14.50
2010,01,17,10,43,17.70
2010,01,17,10,44,16.10
2010,01,17,10,45,17.70
2010,01,17,10,46,19.30
2010,01,17,10,47,16.10
2010,01,17,10,48,16.10
2010,01,17,10,49,14.50
2010,01,17,10,50,9.60
2010,01,17,10,51,17.70
2010,01,17,10,52,16.10
2010,01,17,10,53,14.50
2010,01,17,10,54,9.60
2010,01,17,10,55,9.60
2010,01,17,10,56,9.60
2010,01,17,10,57,14.50
2010,01,17,10,58,9.60
2010,01,17,10,59,17.70
2010,01,17,11,00,11.30
2010,01,17,11,01,11.30
2010,01,17,11,02,9.60
2010,01,17,11,03,11.30
2010,01,17,11,04,12.90
2010,01,17,11,05,9.60
2010,01,17,11,06,12.90
2010,01,17,11,07,9.60
2010,01,17,11,08,9.60
2010,01,17,11,09,11.30
2010,01,17,11,10,17.70
2010,01,17,11,11,16.10
2010,01,17,11,12,14.50
2010,01,17,11,13,11.30
2010,01,17,11,14,16.10
2010,01,17,11,15,16.10
2010,01,17,11,16,16.10
2010,01,17,11,17,19.30
2010,01,17,11,18,16.10
2010,01,17,11,19,12.90
2010,01,17,11,20,14.50
2010,01,17,11,21,14.50
2010,01,17,11,22,12.90
2010,01,17,11,23,9.60
2010,01,17,11,24,16.10
2010,01,17,11,25,17.70
2010,01,17,11,26,11.30
2010,01,17,11,27,17.70
2010,01,17,11,28,14.50
2010,01,17,11,29,12.90
2010,01,17,11,30,16.10
2010,01,17,11,31,11.30
2010,01,17,11,32,14.50
2010,01,17,11,33,12.90
2010,01,17,11,34,16.10
2010,01,17,11,35,11.30
2010,01,17,11,36,11.30
2010,01,17,11,37,14.50
2010,01,17,11,38,17.70
2010,01,17,11,39,17.70
2010,01,17,11,40,14.50
2010,01,17,11,41,16.10
2010,01,17,11,42,16.10
2010,01,17,11,43,16.10
2010,01,17,11,44,17.70
2010,01,17,11,45,14.50
2010,01,17,11,46,11.30
2010,01,17,11,47,14.50
2010,01,17,11,48,12.90
2010,01,17,11,49,11.30
2010,01,17,11,50,14.50
2010,01,17,11,51,16.10
2010,01,17,11,52,11.30
2010,01,17,11,53,11.30
2010,01,17,11,54,16.10
2010,01,17,11,55,17.70
2010,01,17,11,56,14.50
2010,01,17,11,57,19.30
2010,01,17,11,58,19.30
2010,01,17,11,59,22.50
2010,01,17,12,00,19.30
2010,01,17,12,01,17.70
2010,01,17,12,02,19.30
2010,01,17,12,03,20.90
2010,01,17,12,04,19.30
2010,01,17,12,05,17.70
2010,01,17,12,06,14.50
2010,01,17,12,07,17.70
2010,01,17,12,08,16.10
2010,01,17,12,09,17.70
2010,01,17,12,10,19.30
2010,01,17,12,11,20.90
2010,01,17,12,12,14.50
2010,01,17,12,13,17.70
2010,01,17,12,14,19.30
2010,01,17,12,15,17.70
2010,01,17,12,16,16.10
2010,01,17,12,17,14.50
2010,01,17,12,18,17.70
2010,01,17,12,19,17.70
2010,01,17,12,20,17.70
2010,01,17,12,21,11.30
2010,01,17,12,22,9.60
2010,01,17,12,23,9.60
2010,01,17,12,24,9.60
2010,01,17,12,25,17.70
2010,01,17,12,26,16.10
2010,01,17,12,27,16.10
2010,01,17,12,28,14.50
2010,01,17,12,29,20.90
2010,01,17,12,30,20.90
2010,01,17,12,31,27.40
2010,01,17,12,32,20.90
2010,01,17,12,33,22.50
2010,01,17,12,34,22.50
2010,01,17,12,35,20.90
2010,01,17,12,36,20.90
2010,01,17,12,37,22.50
2010,01,17,12,38,24.20
2010,01,17,12,39,24.20
2010,01,17,12,40,29.00
2010,01,17,12,41,25.70
2010,01,17,12,42,25.70
2010,01,17,12,43,30.60
2010,01,17,12,44,32.20
2010,01,17,12,45,19.30
2010,01,17,12,46,20.90
2010,01,17,12,47,20.90
2010,01,17,12,48,24.20
2010,01,17,12,49,19.30
2010,01,17,12,50,25.70
2010,01,17,12,51,25.70
2010,01,17,12,52,32.20
2010,01,17,12,53,19.30
2010,01,17,12,54,22.50
2010,01,17,12,55,32.20
2010,01,17,12,56,29.00
2010,01,17,12,57,29.00
2010,01,17,12,58,25.70
2010,01,17,12,59,29.00
2010,01,17,13,00,30.60
2010,01,17,13,01,24.20
2010,01,17,13,02,27.40
2010,01,17,13,03,20.90
2010,01,17,13,04,25.70
2010,01,17,13,05,19.30
2010,01,17,13,06,22.50
2010,01,17,13,07,25.70
2010,01,17,13,08,29.00
2010,01,17,13,09,25.70
2010,01,17,13,10,19.30
2010,01,17,13,11,24.20
2010,01,17,13,12,20.90
2010,01,17,13,13,25.70
2010,01,17,13,14,25.70
2010,01,17,13,15,25.70
2010,01,17,13,16,22.50
2010,01,17,13,17,25.70
2010,01,17,13,18,22.50
2010,01,17,13,19,22.50
2010,01,17,13,20,24.20
2010,01,17,13,21,25.70
2010,01,17,13,22,24.20
2010,01,17,13,23,20.90
2010,01,17,13,24,17.70
2010,01,17,13,25,19.30
2010,01,17,13,26,24.20
2010,01,17,13,27,19.30
2010,01,17,13,28,27.40
2010,01,17,13,29,25.70
2010,01,17,13,30,19.30
2010,01,17,13,31,22.50
2010,01,17,13,32,20.90
2010,01,17,13,33,19.30
2010,01,17,13,34,27.40
2010,01,17,13,35,22.50
2010,01,17,13,36,29.00
2010,01,17,13,37,22.50
2010,01,17,13,38,29.00
2010,01,17,13,39,24.20
2010,01,17,13,40,24.20
2010,01,17,13,41,27.40
2010,01,17,13,42,19.30
2010,01,17,13,43,20.90
2010,01,17,13,44,25.70
2010,01,17,13,45,30.60
2010,01,17,13,46,22.50
2010,01,17,13,47,17.70
2010,01,17,13,48,25.70
2010,01,17,13,49,30.60
2010,01,17,13,50,32.20
2010,01,17,13,51,24.20
2010,01,17,13,52,29.00
2010,01,17,13,53,40.20
2010,01,17,13,54,29.00
2010,01,17,13,55,22.50
2010,01,17,13,56,27.40
2010,01,17,13,57,33.80
2010,01,17,13,58,32.20
2010,01,17,13,59,25.70
2010,01,17,14,00,25.70
2010,01,17,14,01,29.00
2010,01,17,14,02,30.60
2010,01,17,14,03,27.40
2010,01,17,14,04,22.50
2010,01,17,14,05,32.20
2010,01,17,14,06,30.60
2010,01,17,14,07,27.40
2010,01,17,14,08,24.20
2010,01,17,14,09,32.20
2010,01,17,14,10,25.70
2010,01,17,14,11,25.70
2010,01,17,14,12,20.90
2010,01,17,14,13,27.40
2010,01,17,14,14,22.50
2010,01,17,14,15,20.90
2010,01,17,14,16,25.70
2010,01,17,14,17,22.50
2010,01,17,14,18,20.90
2010,01,17,14,19,19.30
2010,01,17,14,20,20.90
2010,01,17,14,21,20.90
2010,01,17,14,22,27.40
2010,01,17,14,23,25.70
2010,01,17,14,24,27.40
2010,01,17,14,25,19.30
2010,01,17,14,26,19.30
2010,01,17,14,27,27.40
2010,01,17,14,28,24.20
2010,01,17,14,29,22.50
2010,01,17,14,30,20.90
2010,01,17,14,31,20.90
2010,01,17,14,32,19.30
2010,01,17,14,33,20.90
2010,01,17,14,34,20.90
2010,01,17,14,35,19.30
2010,01,17,14,36,20.90
2010,01,17,14,37,24.20
2010,01,17,14,38,20.90
2010,01,17,14,39,19.30
2010,01,17,14,40,22.50
2010,01,17,14,41,20.90
2010,01,17,14,42,19.30
2010,01,17,14,43,19.30
2010,01,17,14,44,17.70
2010,01,17,14,45,16.10
2010,01,17,14,46,22.50
2010,01,17,14,47,20.90
2010,01,17,14,48,19.30
2010,01,17,14,49,17.70
2010,01,17,14,50,20.90
2010,01,17,14,51,22.50
2010,01,17,14,52,17.70
2010,01,17,14,53,19.30
2010,01,17,14,54,22.50
2010,01,17,14,55,20.90
2010,01,17,14,56,25.70
2010,01,17,14,57,20.90
2010,01,17,14,58,17.70
2010,01,17,14,59,29.00
2010,01,17,15,00,25.70
2010,01,17,15,01,30.60
2010,01,17,15,02,25.70
2010,01,17,15,03,24.20
2010,01,17,15,04,24.20
2010,01,17,15,05,30.60
2010,01,17,15,06,24.20
2010,01,17,15,07,25.70
2010,01,17,15,08,25.70
2010,01,17,15,09,32.20
2010,01,17,15,10,30.60
2010,01,17,15,11,25.70
2010,01,17,15,12,20.90
2010,01,17,15,13,19.30
2010,01,17,15,14,22.50
2010,01,17,15,15,20.90
2010,01,17,15,16,20.90
2010,01,17,15,17,19.30
2010,01,17,15,18,27.40
2010,01,17,15,19,20.90
2010,01,17,15,20,27.40
2010,01,17,15,21,24.20
2010,01,17,15,22,25.70
2010,01,17,15,23,24.20
2010,01,17,15,24,24.20
2010,01,17,15,25,20.90
2010,01,17,15,26,24.20
2010,01,17,15,27,20.90
2010,01,17,15,28,20.90
2010,01,17,15,29,24.20
2010,01,17,15,30,30.60
2010,01,17,15,31,32.20
2010,01,17,15,32,29.00
2010,01,17,15,33,24.20
2010,01,17,15,34,19.30
2010,01,17,15,35,24.20
2010,01,17,15,36,22.50
2010,01,17,15,37,25.70
2010,01,17,15,38,22.50
2010,01,17,15,39,32.20
2010,01,17,15,40,24.20
2010,01,17,15,41,24.20
2010,01,17,15,42,32.20
2010,01,17,15,43,27.40
2010,01,17,15,44,30.60
2010,01,17,15,45,27.40
2010,01,17,15,46,30.60
2010,01,17,15,47,32.20
2010,01,17,15,48,27.40
2010,01,17,15,49,29.00
2010,01,17,15,50,30.60
2010,01,17,15,51,29.00
2010,01,17,15,52,25.70
2010,01,17,15,53,30.60
2010,01,17,15,54,25.70
2010,01,17,15,55,25.70
2010,01,17,15,56,27.40
2010,01,17,15,57,22.50
2010,01,17,15,58,27.40
2010,01,17,15,59,30.60
2010,01,17,16,00,25.70
2010,01,17,16,01,22.50
2010,01,17,16,02,25.70
2010,01,17,16,03,35.40
2010,01,17,16,04,24.20
2010,01,17,16,05,17.70
2010,01,17,16,06,19.30
2010,01,17,16,07,24.20
2010,01,17,16,08,30.60
2010,01,17,16,09,29.00
2010,01,17,16,10,29.00
2010,01,17,16,11,27.40
2010,01,17,16,12,27.40
2010,01,17,16,13,25.70
2010,01,17,16,14,25.70
2010,01,17,16,15,24.20
2010,01,17,16,16,27.40
2010,01,17,16,17,25.70
2010,01,17,16,18,24.20
2010,01,17,16,19,22.50
2010,01,17,16,20,25.70
2010,01,17,16,21,22.50
2010,01,17,16,22,29.00
2010,01,17,16,23,29.00
2010,01,17,16,24,24.20
2010,01,17,16,25,19.30
2010,01,17,16,26,32.20
2010,01,17,16,27,22.50
2010,01,17,16,28,32.20
2010,01,17,16,29,29.00
2010,01,17,16,30,27.40
2010,01,17,16,31,27.40
2010,01,17,16,32,37.00
2010,01,17,16,33,29.00
2010,01,17,16,34,27.40
2010,01,17,16,35,24.20
2010,01,17,16,36,24.20
2010,01,17,16,37,22.50
2010,01,17,16,38,25.70
2010,01,17,16,39,22.50
2010,01,17,16,40,27.40
2010,01,17,16,41,33.80
2010,01,17,16,42,30.60
2010,01,17,16,43,27.40
2010,01,17,16,44,27.40
2010,01,17,16,45,30.60
2010,01,17,16,46,25.70
2010,01,17,16,47,30.60
2010,01,17,16,48,25.70
2010,01,17,16,49,30.60
2010,01,17,16,50,30.60
2010,01,17,16,51,24.20
2010,01,17,16,52,29.00
2010,01,17,16,53,35.40
2010,01,17,16,54,30.60
2010,01,17,16,55,27.40
2010,01,17,16,56,25.70
2010,01,17,16,57,29.00
2010,01,17,16,58,22.50
2010,01,17,16,59,25.70
2010,01,17,17,00,27.40
2010,01,17,17,01,25.70
2010,01,17,17,02,25.70
2010,01,17,17,03,25.70
2010,01,17,17,04,27.40
2010,01,17,17,05,25.70
2010,01,17,17,06,24.20
2010,01,17,17,07,20.90
2010,01,17,17,08,27.40
2010,01,17,17,09,20.90
2010,01,17,17,10,22.50
2010,01,17,17,11,25.70
2010,01,17,17,12,25.70
2010,01,17,17,13,25.70
2010,01,17,17,14,27.40
2010,01,17,17,15,25.70
2010,01,17,17,16,25.70
2010,01,17,17,17,22.50
2010,01,17,17,18,25.70
2010,01,17,17,19,25.70
2010,01,17,17,20,25.70
2010,01,17,17,21,25.70